Location: Golden Pond Observatory
(36.7667°N, 88.0167°W)
Time: 21:27:47
(UTC-05:00)

ISS - Pass Details

Date: 22 July 2018
Orbit: 402 x 409 km, 51.6° (Epoch: 18 August)

Event Time Altitude Azimuth Distance (km) Brightness Sun altitude
Rises 02:49:13 0° 320° (NW) 2,338 0.3 -27.3°
Reaches altitude 10° 02:51:38 10° 337° (NNW) 1,476 -0.6 -27.0°
Maximum altitude 02:54:16 22° 30° (NNE) 967 -1.2 -26.8°
Drops below altitude 10° 02:56:54 10° 83° (E) 1,474 -0.6 -26.5°
Sets 02:59:18 0° 99° (E) 2,333 0.3 -26.3°
